This is the latest recevied weather packets stored in our database for station/object KC5EZZ-2. If no packets are shown the sender has not sent any weather packets the latest 1 day(s).
| Time | Temp. | Humidity | Pressure | Rain* | Wind** | Luminosity | Snow |
|---|---|---|---|---|---|---|---|
| 1778029829 | 29.44° C | - | - | 0 mm | 2.24 m/s, 277° | - | - |
| 1778029529 | 29.44° C | - | - | 0 mm | 2.68 m/s, 304° | - | - |
| 1778029227 | 30° C | - | - | 0 mm | 3.58 m/s, 290° | - | - |
| 1778028927 | 30.56° C | - | - | 0 mm | 2.24 m/s, 285° | - | - |
| 1778028628 | 30.56° C | - | - | 0 mm | 2.68 m/s, 266° | - | - |
| 1778028325 | 30.56° C | - | - | 0 mm | 3.13 m/s, 293° | - | - |
| 1778028026 | 31.11° C | - | - | 0 mm | 2.68 m/s, 243° | - | - |
| 1778027726 | 31.67° C | - | - | 0 mm | 3.13 m/s, 271° | - | - |
| 1778027423 | 31.67° C | - | - | 0 mm | 1.34 m/s, 321° | - | - |
| 1778027124 | 31.67° C | - | - | 0 mm | 0.45 m/s, 238° | - | - |
| 1778026824 | 32.22° C | - | - | 0 mm | 0.45 m/s, 231° | - | - |
| 1778026522 | 32.22° C | - | - | 0 mm | 1.34 m/s, 211° | - | - |
| 1778026222 | 32.22° C | - | - | 0 mm | 0.89 m/s, 246° | - | - |
| 1778025922 | 31.67° C | - | - | 0 mm | 1.34 m/s, 238° | - | - |
| 1778025620 | 31.67° C | - | - | 0 mm | 1.34 m/s, 240° | - | - |
| 1778025320 | 31.67° C | - | - | 0 mm | 1.79 m/s, 231° | - | - |
| 1778025021 | 31.67° C | - | - | 0 mm | 1.79 m/s, 229° | - | - |
| 1778024718 | 32.22° C | - | - | 0 mm | 2.24 m/s, 228° | - | - |
| 1778024418 | 32.22° C | - | - | 0 mm | 1.79 m/s, 228° | - | - |
| 1778024119 | 32.22° C | - | - | 0 mm | 2.68 m/s, 215° | - | - |
| 1778023816 | 32.22° C | - | - | 0 mm | 1.79 m/s, 224° | - | - |
| 1778023516 | 32.22° C | - | - | 0 mm | 3.13 m/s, 249° | - | - |
| 1778023217 | 32.78° C | - | - | 0 mm | 3.58 m/s, 229° | - | - |
| 1778022914 | 32.78° C | - | - | 0 mm | 2.24 m/s, 238° | - | - |
| 1778022660 | 33.33° C | - | - | 0 mm | 3.13 m/s, 214° | - | - |
* Rain latest hour (hover to see other rain measurements)
** Current wind speed in m/s (hover to see current wind gust speed)